Location: Nairn
(57.5833°N, 3.8667°W)
Time: 04:38:48
(UTC+00:00)

Altair - Pass Details

Date: 27 November 2020
Orbit: 1501 x 1682 km, 47.2° (Epoch: 17 January)

Event Time Altitude Azimuth Distance (km) Brightness Sun altitude
Exits shadow 03:54:30 11° 177° (S) 3,628 9.3 -34.8°
Drops below altitude 10° 03:54:43 10° 176° (S) 3,675 9.4 -34.8°
Sets 03:58:46 0° 161° (SSE) 4,697 10.1 -34.3°
